Location: Alma
(34.4195°N, 97.6123°W)
Time: 05:22:44
(UTC+00:00)

Hubble Space Telescope - Pass Details

Date: 29 May 2024
Orbit: 511 x 514 km, 28.5° (Epoch: 13 June)

Event Time Altitude Azimuth Distance (km) Brightness Sun altitude
Rises 03:02:33 0° 252° (WSW) 2,610 4.7 -15.7°
Reaches altitude 10° 03:04:55 10° 242° (WSW) 1,724 3.6 -16.0°
Maximum altitude 03:08:32 34° 177° (S) 856 1.4 -16.6°
Enters shadow 03:09:01 33° 161° (SSE) 878 1.4 -16.7°
